Regional Weather Roundup
Issued by NWS Cleveland, OH

Home | Current Version | Previous Version | Graphics & Text | Print | Product List | Glossary On
Versions: 1 2 3 4 5 6 7 8 9 10 11 12 13 14 15 16 17 18 19 20 21 22 23 24 25 26 27 28 29 30 31 32 33 34 35 36 37 38 39 40 41 42 43 44 45 46 47 48 49 50
000
ASUS41 KCLE 212110
RWRCLE
OHIO REGIONAL WEATHER ROUNDUP
NATIONAL WEATHER SERVICE WILMINGTON, OH
400 PM EST TUE FEB 21 2017

NOTE: "FAIR" INDICATES FEW OR NO CLOUDS BELOW 12,000 FEET WITH NO
SIGNIFICANT WEATHER AND/OR OBSTRUCTIONS TO VISIBILITY.

OHZ001>008-015>018-024>027-034-035-043-044-212200-
   NORTHWEST OHIO

CITY           SKY/WX    TMP DP  RH WIND       PRES   REMARKS
DEFIANCE       CLOUDY    57  49  74 SW3       29.94S
FINDLAY        CLOUDY    62  46  55 S7        29.94R
TOLEDO EXPRESS CLOUDY    56  50  80 W5        29.93R
TOLEDO EXEC    CLOUDY    57  51  80 NW5       29.94R
LIMA           FAIR      63  49  60 SW7       29.94S
$$

OHZ009>014-019>023-028>033-038-089-212200-
   NORTHEAST OHIO

CITY           SKY/WX    TMP DP  RH WIND       PRES   REMARKS
CLE-HOPKINS    CLOUDY    65  44  46 W6        29.97S
CLE-LAKEFRONT  CLOUDY    52  41  66 S5        29.95R
CUY CO. ARPT   CLOUDY    59  46  63 W9        29.97R
LORAIN-ELYRIA  PTSUNNY   61  46  57 SW6       29.96S
ASHTABULA      PTSUNNY   61  41  47 SW5       29.97R
AKRON-CANTON   CLOUDY    63  44  50 SW9       29.98R
WOOSTER        PTSUNNY   62  46  55 SW3       29.97S
MANSFIELD      CLOUDY    62  46  55 SW7       29.97R
YOUNGSTOWN     CLOUDY    62  42  47 SW7       29.97S
$$

OHZ042-051>053-060>062-070>072-077>081-212200-
  SOUTHWEST OHIO

CITY           SKY/WX    TMP DP  RH WIND       PRES   REMARKS
CINC-COVINGTON CLOUDY    67  50  54 NW3       29.96F
CINC-LUNKEN    PTSUNNY   67  53  61 CALM      29.95F
HAMILTON       LGT RAIN  58  51  78 NW3       29.98S
DAYTON         CLOUDY    64  47  53 S6        29.97S
WRIGHT-PAT AFB FAIR      65  48  54 SW6       29.97R
DAYTON GENERAL CLOUDY    64  48  56 SW8       29.97R
WILMINGTON     CLOUDY    61  49  64 SW3       29.98S
$$

OHZ036-037-039>041-045>050-054>059-063>069-073>076-082>088-212200-
  CENTRAL AND SOUTHEAST OHIO

CITY           SKY/WX    TMP DP  RH WIND       PRES   REMARKS
COLUMBUS       CLOUDY    68  47  46 SW13      29.97F
OSU AIRPORT    FAIR      66  49  54 SW9       29.96F
BOLTON FIELD   MOSUNNY   64  48  55 SW8       29.98F
RICKENBACK AFB FAIR      65  48  55 SW5       29.97S
NEWARK         FAIR      66  46  48 SW8       29.97S
MARION         CLOUDY    64  46  52 W6        29.97S
LANCASTER      PTSUNNY   67  48  50 W5        29.98F
ZANESVILLE     FAIR      67  45  45 W3        29.98S
NEW PHILLY     FAIR      65  45  48 W8        29.98S
$$



USA.gov is the U.S. government's official web portal to all federal, state and local government web resources and services.